Time,TemperatureF,DewpointF,PressureIn,WindDirection,WindDirectionDegrees,WindSpeedMPH,WindSpeedGustMPH,Humidity,HourlyPrecipIn,Conditions,Clouds,dailyrainin,SoftwareType,DateUTC
2013-12-22 00:00:00,79.0,74.0,30.09,North,-999,-999.0,-999.0,86,-99.99,,,-99.99,,2013-12-22 05:00:00,
2013-12-22 00:43:00,79.0,74.0,30.09,North,-999,-999.0,-999.0,86,-99.99,,,-99.99,,2013-12-22 05:43:00,
2013-12-22 00:52:00,79.0,74.0,30.09,North,-999,-999.0,-999.0,86,-99.99,,,-99.99,,2013-12-22 05:52:00,
2013-12-22 01:00:00,79.0,75.0,30.08,North,-999,-999.0,-999.0,87,-99.99,,,-99.99,,2013-12-22 06:00:00,
2013-12-22 01:42:00,79.0,75.0,30.08,North,-999,-999.0,-999.0,87,-99.99,,,-99.99,,2013-12-22 06:42:00,
2013-12-22 01:52:00,79.0,75.0,30.08,North,-999,-999.0,-999.0,87,-99.99,,,-99.99,,2013-12-22 06:52:00,
2013-12-22 02:00:00,79.0,76.0,30.08,North,-999,-999.0,-999.0,89,-99.99,,,-99.99,,2013-12-22 07:00:00,
2013-12-22 02:42:00,79.0,76.0,30.08,North,-999,-999.0,-999.0,89,-99.99,,,-99.99,,2013-12-22 07:42:00,
2013-12-22 02:52:00,79.0,76.0,30.08,North,-999,-999.0,-999.0,89,-99.99,,,-99.99,,2013-12-22 07:52:00,
2013-12-22 03:00:00,79.0,75.0,30.07,North,-999,-999.0,-999.0,88,-99.99,,,-99.99,,2013-12-22 08:00:00,
2013-12-22 03:42:00,79.0,75.0,30.07,North,-999,-999.0,-999.0,88,-99.99,,,-99.99,,2013-12-22 08:42:00,
2013-12-22 03:52:00,79.0,75.0,30.07,North,-999,-999.0,-999.0,88,-99.99,,,-99.99,,2013-12-22 08:52:00,
2013-12-22 04:00:00,79.0,76.0,30.06,North,-999,-999.0,-999.0,91,-99.99,,,-99.99,,2013-12-22 09:00:00,
2013-12-22 04:43:00,79.0,76.0,30.06,North,-999,-999.0,-999.0,91,-99.99,,,-99.99,,2013-12-22 09:43:00,
2013-12-22 04:53:00,79.0,76.0,30.06,North,-999,-999.0,-999.0,91,-99.99,,,-99.99,,2013-12-22 09:53:00,
2013-12-22 05:00:00,78.0,74.0,30.07,North,-999,-999.0,-999.0,86,-99.99,,,-99.99,,2013-12-22 10:00:00,
2013-12-22 05:42:00,78.0,74.0,30.07,North,-999,-999.0,-999.0,86,-99.99,,,-99.99,,2013-12-22 10:42:00,
2013-12-22 05:53:00,78.0,74.0,30.07,North,-999,-999.0,-999.0,86,-99.99,,,-99.99,,2013-12-22 10:53:00,
2013-12-22 06:00:00,79.0,75.0,30.08,North,-999,-999.0,-999.0,87,-99.99,,,-99.99,,2013-12-22 11:00:00,
2013-12-22 06:42:00,79.0,75.0,30.08,North,-999,-999.0,-999.0,87,-99.99,,,-99.99,,2013-12-22 11:42:00,
2013-12-22 06:52:00,79.0,75.0,30.08,North,-999,-999.0,-999.0,87,-99.99,,,-99.99,,2013-12-22 11:52:00,
2013-12-22 07:00:00,78.0,74.0,30.09,North,-999,-999.0,-999.0,86,-99.99,,,-99.99,,2013-12-22 12:00:00,
2013-12-22 07:42:00,78.0,74.0,30.09,North,-999,-999.0,-999.0,86,-99.99,,,-99.99,,2013-12-22 12:42:00,
2013-12-22 07:52:00,78.0,74.0,30.09,North,-999,-999.0,-999.0,86,-99.99,,,-99.99,,2013-12-22 12:52:00,
2013-12-22 08:00:00,79.0,71.0,30.11,North,-999,-999.0,-999.0,78,-99.99,,,-99.99,,2013-12-22 13:00:00,
2013-12-22 08:21:00,79.0,71.0,30.11,North,-999,-999.0,-999.0,78,-99.99,,,-99.99,,2013-12-22 13:21:00,
2013-12-22 08:31:00,79.0,71.0,30.11,North,-999,-999.0,-999.0,78,-99.99,,,-99.99,,2013-12-22 13:31:00,
2013-12-22 08:42:00,79.0,71.0,30.11,North,-999,-999.0,-999.0,78,-99.99,,,-99.99,,2013-12-22 13:42:00,
2013-12-22 08:52:00,79.0,71.0,30.11,North,-999,-999.0,-999.0,78,-99.99,,,-99.99,,2013-12-22 13:52:00,
2013-12-22 09:00:00,79.0,74.0,30.13,North,-999,-999.0,-999.0,83,-99.99,,,-99.99,,2013-12-22 14:00:00,
2013-12-22 09:42:00,79.0,74.0,30.13,North,-999,-999.0,-999.0,83,-99.99,,,-99.99,,2013-12-22 14:42:00,
2013-12-22 09:52:00,79.0,74.0,30.13,North,-999,-999.0,-999.0,83,-99.99,,,-99.99,,2013-12-22 14:52:00,
2013-12-22 10:00:00,79.0,74.0,30.14,North,-999,-999.0,-999.0,82,-99.99,,,-99.99,,2013-12-22 15:00:00,
2013-12-22 10:43:00,79.0,74.0,30.14,North,-999,-999.0,-999.0,82,-99.99,,,-99.99,,2013-12-22 15:43:00,
2013-12-22 10:53:00,79.0,74.0,30.14,North,-999,-999.0,-999.0,82,-99.99,,,-99.99,,2013-12-22 15:53:00,
2013-12-22 11:00:00,80.0,75.0,30.14,North,-999,-999.0,-999.0,86,-99.99,,,-99.99,,2013-12-22 16:00:00,
2013-12-22 11:23:00,80.0,75.0,30.14,North,-999,-999.0,-999.0,86,-99.99,,,-99.99,,2013-12-22 16:23:00,
2013-12-22 11:33:00,80.0,75.0,30.14,North,-999,-999.0,-999.0,86,-99.99,,,-99.99,,2013-12-22 16:33:00,
2013-12-22 11:42:00,80.0,75.0,30.14,North,-999,-999.0,-999.0,86,-99.99,,,-99.99,,2013-12-22 16:42:00,
2013-12-22 11:52:00,80.0,75.0,30.14,North,-999,-999.0,-999.0,86,-99.99,,,-99.99,,2013-12-22 16:52:00,
2013-12-22 12:00:00,80.0,75.0,30.11,North,-999,-999.0,-999.0,86,-99.99,,,-99.99,,2013-12-22 17:00:00,
2013-12-22 12:42:00,80.0,75.0,30.11,North,-999,-999.0,-999.0,86,-99.99,,,-99.99,,2013-12-22 17:42:00,
2013-12-22 12:52:00,80.0,75.0,30.11,North,-999,-999.0,-999.0,86,-99.99,,,-99.99,,2013-12-22 17:52:00,
2013-12-22 13:00:00,80.0,76.0,30.09,North,-999,-999.0,-999.0,88,-99.99,,,-99.99,,2013-12-22 18:00:00,
2013-12-22 13:21:00,80.0,76.0,30.09,North,-999,-999.0,-999.0,88,-99.99,,,-99.99,,2013-12-22 18:21:00,
2013-12-22 13:33:00,80.0,76.0,30.09,North,-999,-999.0,-999.0,88,-99.99,,,-99.99,,2013-12-22 18:33:00,
2013-12-22 13:42:00,80.0,76.0,30.09,North,-999,-999.0,-999.0,88,-99.99,,,-99.99,,2013-12-22 18:42:00,
2013-12-22 13:52:00,80.0,76.0,30.09,North,-999,-999.0,-999.0,88,-99.99,,,-99.99,,2013-12-22 18:52:00,
2013-12-22 14:00:00,80.0,76.0,30.08,North,-999,-999.0,-999.0,87,-99.99,,,-99.99,,2013-12-22 19:00:00,
2013-12-22 14:42:00,80.0,76.0,30.08,North,-999,-999.0,-999.0,87,-99.99,,,-99.99,,2013-12-22 19:42:00,
2013-12-22 14:52:00,80.0,76.0,30.08,North,-999,-999.0,-999.0,87,-99.99,,,-99.99,,2013-12-22 19:52:00,
2013-12-22 15:00:00,80.0,76.0,30.09,North,-999,-999.0,-999.0,87,-99.99,,,-99.99,,2013-12-22 20:00:00,
2013-12-22 15:42:00,80.0,76.0,30.09,North,-999,-999.0,-999.0,87,-99.99,,,-99.99,,2013-12-22 20:42:00,
2013-12-22 15:52:00,80.0,76.0,30.09,North,-999,-999.0,-999.0,87,-99.99,,,-99.99,,2013-12-22 20:52:00,
2013-12-22 16:00:00,80.0,76.0,30.09,North,-999,-999.0,-999.0,88,-99.99,,,-99.99,,2013-12-22 21:00:00,
2013-12-22 16:43:00,80.0,76.0,30.09,North,-999,-999.0,-999.0,88,-99.99,,,-99.99,,2013-12-22 21:43:00,
2013-12-22 16:53:00,80.0,76.0,30.09,North,-999,-999.0,-999.0,88,-99.99,,,-99.99,,2013-12-22 21:53:00,
2013-12-22 17:00:00,80.0,76.0,30.10,North,-999,-999.0,-999.0,88,-99.99,,,-99.99,,2013-12-22 22:00:00,
2013-12-22 17:23:00,80.0,76.0,30.10,North,-999,-999.0,-999.0,88,-99.99,,,-99.99,,2013-12-22 22:23:00,
2013-12-22 17:33:00,80.0,76.0,30.10,North,-999,-999.0,-999.0,88,-99.99,,,-99.99,,2013-12-22 22:33:00,
2013-12-22 17:42:00,80.0,76.0,30.10,North,-999,-999.0,-999.0,88,-99.99,,,-99.99,,2013-12-22 22:42:00,
2013-12-22 17:53:00,80.0,76.0,30.10,North,-999,-999.0,-999.0,88,-99.99,,,-99.99,,2013-12-22 22:53:00,
2013-12-22 18:00:00,79.0,77.0,30.11,North,-999,-999.0,-999.0,93,-99.99,,,-99.99,,2013-12-22 23:00:00,
2013-12-22 18:42:00,79.0,77.0,30.11,North,-999,-999.0,-999.0,93,-99.99,,,-99.99,,2013-12-22 23:42:00,
2013-12-22 18:53:00,79.0,77.0,30.11,North,-999,-999.0,-999.0,93,-99.99,,,-99.99,,2013-12-22 23:53:00,
2013-12-22 19:00:00,79.0,76.0,30.12,North,-999,-999.0,-999.0,92,-99.99,,,-99.99,,2013-12-23 00:00:00,
2013-12-22 19:42:00,79.0,76.0,30.12,North,-999,-999.0,-999.0,92,-99.99,,,-99.99,,2013-12-23 00:42:00,
2013-12-22 19:52:00,79.0,76.0,30.12,North,-999,-999.0,-999.0,92,-99.99,,,-99.99,,2013-12-23 00:52:00,
2013-12-22 20:00:00,79.0,77.0,30.14,North,-999,-999.0,-999.0,93,-99.99,,,-99.99,,2013-12-23 01:00:00,
2013-12-22 20:42:00,79.0,77.0,30.14,North,-999,-999.0,-999.0,93,-99.99,,,-99.99,,2013-12-23 01:42:00,
2013-12-22 20:52:00,79.0,77.0,30.14,North,-999,-999.0,-999.0,93,-99.99,,,-99.99,,2013-12-23 01:52:00,
2013-12-22 21:00:00,78.0,77.0,30.14,North,-999,-999.0,-999.0,95,-99.99,,,-99.99,,2013-12-23 02:00:00,
2013-12-22 21:42:00,78.0,77.0,30.14,North,-999,-999.0,-999.0,95,-99.99,,,-99.99,,2013-12-23 02:42:00,
2013-12-22 21:52:00,78.0,77.0,30.14,North,-999,-999.0,-999.0,95,-99.99,,,-99.99,,2013-12-23 02:52:00,
2013-12-22 22:00:00,78.0,78.0,30.14,North,-999,-999.0,-999.0,98,-99.99,,,-99.99,,2013-12-23 03:00:00,
2013-12-22 22:22:00,78.0,78.0,30.14,North,-999,-999.0,-999.0,98,-99.99,,,-99.99,,2013-12-23 03:22:00,
2013-12-22 22:33:00,78.0,78.0,30.14,North,-999,-999.0,-999.0,98,-99.99,,,-99.99,,2013-12-23 03:33:00,
2013-12-22 22:43:00,78.0,78.0,30.14,North,-999,-999.0,-999.0,98,-99.99,,,-99.99,,2013-12-23 03:43:00,
2013-12-22 22:53:00,78.0,78.0,30.14,North,-999,-999.0,-999.0,98,-99.99,,,-99.99,,2013-12-23 03:53:00,
2013-12-22 23:00:00,78.0,78.0,30.15,North,-999,-999.0,-999.0,98,-99.99,,,-99.99,,2013-12-23 04:00:00,
2013-12-22 23:42:00,78.0,78.0,30.15,North,-999,-999.0,-999.0,98,-99.99,,,-99.99,,2013-12-23 04:42:00,
2013-12-22 23:52:00,78.0,78.0,30.15,North,-999,-999.0,-999.0,98,-99.99,,,-99.99,,2013-12-23 04:52:00,